﻿測定場所 (Monitoring sites),日付 (Measurement date),時間 (Measurement time),線量率 最大値 (max) μGy/h,線量率 最小値 (min) μGy/h,線量率 平均値 (average) μGy/h,
新宿 (Shinjuku),2014-05-04,23:01～24:00,0.0351,0.0320,0.0334,
新宿 (Shinjuku),2014-05-04,22:01～23:00,0.0356,0.0316,0.0338,
新宿 (Shinjuku),2014-05-04,21:01～22:00,0.0355,0.0316,0.0334,
新宿 (Shinjuku),2014-05-04,20:01～21:00,0.0350,0.0306,0.0335,
新宿 (Shinjuku),2014-05-04,19:01～20:00,0.0359,0.0311,0.0336,
新宿 (Shinjuku),2014-05-04,18:01～19:00,0.0357,0.0313,0.0337,
新宿 (Shinjuku),2014-05-04,17:01～18:00,0.0361,0.0308,0.0338,
新宿 (Shinjuku),2014-05-04,16:01～17:00,0.0362,0.0314,0.0338,
新宿 (Shinjuku),2014-05-04,15:01～16:00,0.0355,0.0319,0.0337,
新宿 (Shinjuku),2014-05-04,14:01～15:00,0.0362,0.0318,0.0339,
新宿 (Shinjuku),2014-05-04,13:01～14:00,0.0360,0.0316,0.0336,
新宿 (Shinjuku),2014-05-04,12:01～13:00,0.0360,0.0317,0.0339,
新宿 (Shinjuku),2014-05-04,11:01～12:00,0.0354,0.0318,0.0338,
新宿 (Shinjuku),2014-05-04,10:01～11:00,0.0362,0.0307,0.0338,
新宿 (Shinjuku),2014-05-04,09:01～10:00,0.0365,0.0315,0.0340,
新宿 (Shinjuku),2014-05-04,08:01～09:00,0.0357,0.0312,0.0337,
新宿 (Shinjuku),2014-05-04,07:01～08:00,0.0360,0.0316,0.0341,
新宿 (Shinjuku),2014-05-04,06:01～07:00,0.0364,0.0317,0.0336,
新宿 (Shinjuku),2014-05-04,05:01～06:00,0.0358,0.0298,0.0336,
新宿 (Shinjuku),2014-05-04,04:01～05:00,0.0353,0.0316,0.0337,
新宿 (Shinjuku),2014-05-04,03:01～04:00,0.0361,0.0315,0.0338,
新宿 (Shinjuku),2014-05-04,02:01～03:00,0.0357,0.0314,0.0336,
新宿 (Shinjuku),2014-05-04,01:01～02:00,0.0355,0.0317,0.0339,
新宿 (Shinjuku),2014-05-04,00:01～01:00,0.0359,0.0320,0.0337,
新宿 (Shinjuku),2014-05-03,23:01～24:00,0.0365,0.0319,0.0337,
新宿 (Shinjuku),2014-05-03,22:01～23:00,0.0362,0.0317,0.0341,
新宿 (Shinjuku),2014-05-03,21:01～22:00,0.0367,0.0329,0.0345,
新宿 (Shinjuku),2014-05-03,20:01～21:00,0.0368,0.0318,0.0344,
新宿 (Shinjuku),2014-05-03,19:01～20:00,0.0365,0.0328,0.0344,
新宿 (Shinjuku),2014-05-03,18:01～19:00,0.0367,0.0326,0.0344,
新宿 (Shinjuku),2014-05-03,17:01～18:00,0.0367,0.0325,0.0343,
新宿 (Shinjuku),2014-05-03,16:01～17:00,0.0374,0.0329,0.0346,
新宿 (Shinjuku),2014-05-03,15:01～16:00,0.0375,0.0327,0.0345,
新宿 (Shinjuku),2014-05-03,14:01～15:00,0.0378,0.0321,0.0346,
新宿 (Shinjuku),2014-05-03,13:01～14:00,0.0361,0.0325,0.0344,
新宿 (Shinjuku),2014-05-03,12:01～13:00,0.0358,0.0319,0.0343,
新宿 (Shinjuku),2014-05-03,11:01～12:00,0.0367,0.0324,0.0344,
新宿 (Shinjuku),2014-05-03,10:01～11:00,0.0367,0.0324,0.0343,
新宿 (Shinjuku),2014-05-03,09:01～10:00,0.0369,0.0327,0.0350,
新宿 (Shinjuku),2014-05-03,08:01～09:00,0.0377,0.0333,0.0354,
新宿 (Shinjuku),2014-05-03,07:01～08:00,0.0372,0.0327,0.0350,
新宿 (Shinjuku),2014-05-03,06:01～07:00,0.0361,0.0329,0.0349,
新宿 (Shinjuku),2014-05-03,05:01～06:00,0.0364,0.0323,0.0346,
新宿 (Shinjuku),2014-05-03,04:01～05:00,0.0367,0.0326,0.0345,
新宿 (Shinjuku),2014-05-03,03:01～04:00,0.0368,0.0322,0.0343,
新宿 (Shinjuku),2014-05-03,02:01～03:00,0.0366,0.0323,0.0345,
新宿 (Shinjuku),2014-05-03,01:01～02:00,0.0369,0.0326,0.0344,
新宿 (Shinjuku),2014-05-03,00:01～01:00,0.0357,0.0321,0.0340,
新宿 (Shinjuku),2014-05-02,23:01～24:00,0.0360,0.0321,0.0337,
新宿 (Shinjuku),2014-05-02,22:01～23:00,0.0358,0.0322,0.0340,
新宿 (Shinjuku),2014-05-02,21:01～22:00,0.0359,0.0315,0.0339,
新宿 (Shinjuku),2014-05-02,20:01～21:00,0.0360,0.0318,0.0335,
新宿 (Shinjuku),2014-05-02,19:01～20:00,0.0360,0.0324,0.0342,
新宿 (Shinjuku),2014-05-02,18:01～19:00,0.0355,0.0316,0.0336,
新宿 (Shinjuku),2014-05-02,17:01～18:00,0.0368,0.0319,0.0339,
新宿 (Shinjuku),2014-05-02,16:01～17:00,0.0370,0.0314,0.0341,
新宿 (Shinjuku),2014-05-02,15:01～16:00,0.0361,0.0317,0.0339,
新宿 (Shinjuku),2014-05-02,14:01～15:00,0.0357,0.0321,0.0338,
新宿 (Shinjuku),2014-05-02,13:01～14:00,0.0366,0.0324,0.0341,
新宿 (Shinjuku),2014-05-02,12:01～13:00,0.0367,0.0324,0.0341,
新宿 (Shinjuku),2014-05-02,11:01～12:00,0.0365,0.0317,0.0340,
新宿 (Shinjuku),2014-05-02,10:01～11:00,0.0355,0.0319,0.0339,
新宿 (Shinjuku),2014-05-02,09:01～10:00,0.0366,0.0322,0.0344,
新宿 (Shinjuku),2014-05-02,08:01～09:00,0.0360,0.0327,0.0342,
新宿 (Shinjuku),2014-05-02,07:01～08:00,0.0366,0.0323,0.0344,
新宿 (Shinjuku),2014-05-02,06:01～07:00,0.0367,0.0325,0.0343,
新宿 (Shinjuku),2014-05-02,05:01～06:00,0.0362,0.0323,0.0340,
新宿 (Shinjuku),2014-05-02,04:01～05:00,0.0369,0.0318,0.0342,
新宿 (Shinjuku),2014-05-02,03:01～04:00,0.0358,0.0316,0.0339,
新宿 (Shinjuku),2014-05-02,02:01～03:00,0.0361,0.0324,0.0339,
新宿 (Shinjuku),2014-05-02,01:01～02:00,0.0360,0.0320,0.0340,
新宿 (Shinjuku),2014-05-02,00:01～01:00,0.0361,0.0325,0.0341,
新宿 (Shinjuku),2014-05-01,23:01～24:00,0.0357,0.0315,0.0340,
新宿 (Shinjuku),2014-05-01,22:01～23:00,0.0358,0.0316,0.0335,
新宿 (Shinjuku),2014-05-01,21:01～22:00,0.0363,0.0320,0.0338,
新宿 (Shinjuku),2014-05-01,20:01～21:00,0.0356,0.0307,0.0338,
新宿 (Shinjuku),2014-05-01,19:01～20:00,0.0366,0.0318,0.0339,
新宿 (Shinjuku),2014-05-01,18:01～19:00,0.0362,0.0318,0.0340,
新宿 (Shinjuku),2014-05-01,17:01～18:00,0.0360,0.0318,0.0341,
新宿 (Shinjuku),2014-05-01,16:01～17:00,0.0357,0.0318,0.0338,
新宿 (Shinjuku),2014-05-01,15:01～16:00,0.0356,0.0313,0.0337,
新宿 (Shinjuku),2014-05-01,14:01～15:00,0.0360,0.0317,0.0338,
新宿 (Shinjuku),2014-05-01,13:01～14:00,0.0358,0.0315,0.0337,
新宿 (Shinjuku),2014-05-01,12:01～13:00,0.0357,0.0315,0.0338,
新宿 (Shinjuku),2014-05-01,11:01～12:00,0.0356,0.0324,0.0340,
新宿 (Shinjuku),2014-05-01,10:01～11:00,0.0360,0.0314,0.0338,
新宿 (Shinjuku),2014-05-01,09:01～10:00,0.0368,0.0315,0.0339,
新宿 (Shinjuku),2014-05-01,08:01～09:00,0.0360,0.0319,0.0336,
新宿 (Shinjuku),2014-05-01,07:01～08:00,0.0362,0.0310,0.0338,
新宿 (Shinjuku),2014-05-01,06:01～07:00,0.0370,0.0325,0.0347,
新宿 (Shinjuku),2014-05-01,05:01～06:00,0.0378,0.0318,0.0346,
新宿 (Shinjuku),2014-05-01,04:01～05:00,0.0355,0.0316,0.0338,
新宿 (Shinjuku),2014-05-01,03:01～04:00,0.0364,0.0328,0.0341,
新宿 (Shinjuku),2014-05-01,02:01～03:00,0.0369,0.0333,0.0347,
新宿 (Shinjuku),2014-05-01,01:01～02:00,0.0360,0.0325,0.0343,
新宿 (Shinjuku),2014-05-01,00:01～01:00,0.0363,0.0318,0.0339,
新宿 (Shinjuku),2014-04-30,23:01～24:00,0.0365,0.0332,0.0349,
新宿 (Shinjuku),2014-04-30,22:01～23:00,0.0362,0.0324,0.0343,
新宿 (Shinjuku),2014-04-30,21:01～22:00,0.0362,0.0318,0.0340,
新宿 (Shinjuku),2014-04-30,20:01～21:00,0.0361,0.0306,0.0338,
新宿 (Shinjuku),2014-04-30,19:01～20:00,0.0359,0.0316,0.0339,
新宿 (Shinjuku),2014-04-30,18:01～19:00,0.0353,0.0316,0.0335,
新宿 (Shinjuku),2014-04-30,17:01～18:00,0.0356,0.0314,0.0338,
新宿 (Shinjuku),2014-04-30,16:01～17:00,0.0363,0.0328,0.0346,
新宿 (Shinjuku),2014-04-30,15:01～16:00,0.0366,0.0329,0.0348,
新宿 (Shinjuku),2014-04-30,14:01～15:00,0.0386,0.0330,0.0359,
新宿 (Shinjuku),2014-04-30,13:01～14:00,0.0382,0.0333,0.0359,
新宿 (Shinjuku),2014-04-30,12:01～13:00,0.0375,0.0332,0.0355,
新宿 (Shinjuku),2014-04-30,11:01～12:00,0.0376,0.0331,0.0350,
新宿 (Shinjuku),2014-04-30,10:01～11:00,0.0362,0.0326,0.0345,
新宿 (Shinjuku),2014-04-30,09:01～10:00,0.0365,0.0323,0.0341,
新宿 (Shinjuku),2014-04-30,08:01～09:00,0.0365,0.0321,0.0342,
新宿 (Shinjuku),2014-04-30,07:01～08:00,0.0372,0.0327,0.0348,
新宿 (Shinjuku),2014-04-30,06:01～07:00,0.0363,0.0314,0.0349,
新宿 (Shinjuku),2014-04-30,05:01～06:00,0.0371,0.0330,0.0350,
新宿 (Shinjuku),2014-04-30,04:01～05:00,0.0387,0.0327,0.0355,
新宿 (Shinjuku),2014-04-30,03:01～04:00,0.0391,0.0342,0.0364,
新宿 (Shinjuku),2014-04-30,02:01～03:00,0.0384,0.0338,0.0358,
新宿 (Shinjuku),2014-04-30,01:01～02:00,0.0384,0.0326,0.0346,
新宿 (Shinjuku),2014-04-30,00:01～01:00,0.0367,0.0321,0.0345,
新宿 (Shinjuku),2014-04-29,23:01～24:00,0.0360,0.0312,0.0340,
新宿 (Shinjuku),2014-04-29,22:01～23:00,0.0371,0.0322,0.0343,
新宿 (Shinjuku),2014-04-29,21:01～22:00,0.0368,0.0320,0.0344,
新宿 (Shinjuku),2014-04-29,20:01～21:00,0.0352,0.0319,0.0336,
新宿 (Shinjuku),2014-04-29,19:01～20:00,0.0358,0.0303,0.0335,
新宿 (Shinjuku),2014-04-29,18:01～19:00,0.0360,0.0311,0.0335,
新宿 (Shinjuku),2014-04-29,17:01～18:00,0.0350,0.0317,0.0333,
新宿 (Shinjuku),2014-04-29,16:01～17:00,0.0376,0.0317,0.0338,
新宿 (Shinjuku),2014-04-29,15:01～16:00,0.0357,0.0314,0.0338,
新宿 (Shinjuku),2014-04-29,14:01～15:00,0.0356,0.0318,0.0342,
新宿 (Shinjuku),2014-04-29,13:01～14:00,0.0363,0.0323,0.0342,
新宿 (Shinjuku),2014-04-29,12:01～13:00,0.0371,0.0319,0.0342,
新宿 (Shinjuku),2014-04-29,11:01～12:00,0.0358,0.0319,0.0342,
新宿 (Shinjuku),2014-04-29,10:01～11:00,0.0357,0.0325,0.0339,
新宿 (Shinjuku),2014-04-29,09:01～10:00,0.0365,0.0323,0.0343,
新宿 (Shinjuku),2014-04-29,08:01～09:00,0.0359,0.0323,0.0340,
新宿 (Shinjuku),2014-04-29,07:01～08:00,0.0367,0.0325,0.0344,
新宿 (Shinjuku),2014-04-29,06:01～07:00,0.0359,0.0319,0.0342,
新宿 (Shinjuku),2014-04-29,05:01～06:00,0.0362,0.0321,0.0342,
新宿 (Shinjuku),2014-04-29,04:01～05:00,0.0368,0.0325,0.0344,
新宿 (Shinjuku),2014-04-29,03:01～04:00,0.0359,0.0323,0.0340,
新宿 (Shinjuku),2014-04-29,02:01～03:00,0.0359,0.0324,0.0341,
新宿 (Shinjuku),2014-04-29,01:01～02:00,0.0355,0.0316,0.0339,
新宿 (Shinjuku),2014-04-29,00:01～01:00,0.0356,0.0314,0.0334,
新宿 (Shinjuku),2014-04-28,23:01～24:00,0.0356,0.0320,0.0337,
新宿 (Shinjuku),2014-04-28,22:01～23:00,0.0350,0.0318,0.0335,
新宿 (Shinjuku),2014-04-28,21:01～22:00,0.0358,0.0317,0.0335,
新宿 (Shinjuku),2014-04-28,20:01～21:00,0.0362,0.0316,0.0337,
新宿 (Shinjuku),2014-04-28,19:01～20:00,0.0356,0.0316,0.0336,
新宿 (Shinjuku),2014-04-28,18:01～19:00,0.0353,0.0312,0.0334,
新宿 (Shinjuku),2014-04-28,17:01～18:00,0.0367,0.0317,0.0336,
新宿 (Shinjuku),2014-04-28,16:01～17:00,0.0362,0.0319,0.0336,
新宿 (Shinjuku),2014-04-28,15:01～16:00,0.0355,0.0311,0.0336,
新宿 (Shinjuku),2014-04-28,14:01～15:00,0.0359,0.0318,0.0335,
新宿 (Shinjuku),2014-04-28,13:01～14:00,0.0362,0.0319,0.0338,
新宿 (Shinjuku),2014-04-28,12:01～13:00,0.0358,0.0318,0.0341,
新宿 (Shinjuku),2014-04-28,11:01～12:00,0.0354,0.0321,0.0339,
新宿 (Shinjuku),2014-04-28,10:01～11:00,0.0352,0.0322,0.0337,
新宿 (Shinjuku),2014-04-28,09:01～10:00,0.0364,0.0320,0.0340,
新宿 (Shinjuku),2014-04-28,08:01～09:00,0.0359,0.0315,0.0337,
新宿 (Shinjuku),2014-04-28,07:01～08:00,0.0356,0.0316,0.0336,
新宿 (Shinjuku),2014-04-28,06:01～07:00,0.0363,0.0312,0.0338,
新宿 (Shinjuku),2014-04-28,05:01～06:00,0.0361,0.0316,0.0335,
新宿 (Shinjuku),2014-04-28,04:01～05:00,0.0355,0.0311,0.0336,
新宿 (Shinjuku),2014-04-28,03:01～04:00,0.0354,0.0311,0.0334,
新宿 (Shinjuku),2014-04-28,02:01～03:00,0.0353,0.0317,0.0334,
新宿 (Shinjuku),2014-04-28,01:01～02:00,0.0361,0.0314,0.0335,
新宿 (Shinjuku),2014-04-28,00:01～01:00,0.0350,0.0306,0.0335,
